This is the latest recevied weather packets stored in our database for station/object AG1T-1. If no packets are shown the sender has not sent any weather packets the latest 1 day(s).
| Time | Temp. | Humidity | Pressure | Rain* | Wind** | Luminosity | Snow |
|---|---|---|---|---|---|---|---|
| 1778018403 | 15° C | 60% | 1012.5 hPa | 0 mm | 1.34 m/s, 162° | 218 W/m² | - |
| 1778017803 | 15° C | 60% | 1012.7 hPa | 0 mm | 0.89 m/s, 186° | 156 W/m² | - |
| 1778017203 | 15° C | 60% | 1012.9 hPa | 0 mm | 0.89 m/s, 141° | 795 W/m² | - |
| 1778016603 | 15° C | 61% | 1013 hPa | 0.25 mm | 0.89 m/s, 139° | 795 W/m² | - |
| 1778016003 | 14.44° C | 63% | 1013.2 hPa | 0.25 mm | 1.34 m/s, 132° | 821 W/m² | - |
| 1778015403 | 13.89° C | 61% | 1013.3 hPa | 0.25 mm | 1.34 m/s, 171° | 833 W/m² | - |
| 1778014803 | 13.89° C | 63% | 1013.3 hPa | 0.25 mm | 1.79 m/s, 149° | 844 W/m² | - |
| 1778014204 | 13.89° C | 67% | 1013.6 hPa | 0.25 mm | 1.79 m/s, 147° | 853 W/m² | - |
| 1778013603 | 13.33° C | 68% | 1013.7 hPa | 0.25 mm | 2.24 m/s, 154° | 895 W/m² | - |
| 1778013003 | 12.78° C | 71% | 1013.8 hPa | 0 mm | 2.24 m/s, 149° | 902 W/m² | - |
| 1778012403 | 12.22° C | 70% | 1014 hPa | 0 mm | 1.79 m/s, 160° | 893 W/m² | - |
| 1778011803 | 11.67° C | 77% | 1014 hPa | 0 mm | 1.79 m/s, 154° | 997 W/m² | - |
| 1778011203 | 11.67° C | 81% | 1014 hPa | 0 mm | 1.79 m/s, 156° | 983 W/m² | - |
| 1778010603 | 11.11° C | 85% | 1014.1 hPa | 0 mm | 1.79 m/s, 152° | 795 W/m² | - |
| 1778010003 | 10.56° C | 86% | 1014.1 hPa | 0 mm | 1.79 m/s, 153° | 527 W/m² | - |
| 1778009403 | 10° C | 87% | 1014.3 hPa | 0 mm | 2.24 m/s, 147° | 422 W/m² | - |
| 1778008803 | 10° C | 89% | 1014.5 hPa | 0 mm | 1.79 m/s, 138° | 427 W/m² | - |
| 1778008203 | 9.44° C | 89% | 1014.5 hPa | 0 mm | 1.79 m/s, 129° | 315 W/m² | - |
| 1778007603 | 9.44° C | 91% | 1014.5 hPa | 0.25 mm | 1.34 m/s, 162° | 1120 W/m² | - |
| 1778007003 | 8.89° C | 91% | 1014.7 hPa | 0.25 mm | 0.45 m/s, 182° | 346 W/m² | - |
| 1778006403 | 8.89° C | 90% | 1014.9 hPa | 0.25 mm | 0.89 m/s, 176° | 213 W/m² | - |
| 1778005803 | 8.89° C | 89% | 1014.7 hPa | 0.25 mm | 0.45 m/s, 236° | 67 W/m² | - |
| 1778005203 | 8.89° C | 88% | 1015.1 hPa | 0.25 mm | 0.45 m/s, 307° | 51 W/m² | - |
| 1778004603 | 9.44° C | 87% | 1015.2 hPa | 0.25 mm | 0.89 m/s, 310° | 42 W/m² | - |
| 1778004003 | 9.44° C | 86% | 1014.8 hPa | 0 mm | 0 m/s | 88 W/m² | - |
* Rain latest hour (hover to see other rain measurements)
** Current wind speed in m/s (hover to see current wind gust speed)